www.pogodaiklimat.ru

Погода и климат >> Архив погоды >> Канада >> Нунавут >> Йоа-Хейвен


ПОГОДА в Йоа-Хейвен

  • Прогноз погоды в Йоа-Хейвен
  • Монитор погоды в Йоа-Хейвен

АРХИВ ПОГОДЫ в Йоа-Хейвен

Время (UTC), дата Ветер
(напр.,м/с)
 
Видим.   Явления Облачность Т
(С)
Тd
(С)
f
(%)
Тe
(С)
Тes
(С)
Комфортность P
(гПа)
Po
(гПа)
Тmin
(С)
Tmax
(С)
R
(мм)
R24
(мм)
S
(см)
03 15.09 ЮВ 5 16 км 10/10 1000 м
[]
+5.3 +4.8 97 +1 +1 1008.0 1002.0
06 15.09 ЮВ 5 16 км 10/10 1000 м
[]
+5.1 +4.8 98 0 0 1007.7 1001.7 +3.9 +6.0 7
09 15.09 ЮВ 5 1000 м дымка н/о +4.4 +4.4 100 -1 -1 1007.1 1001.1
12 15.09 В 6 16 км 10/10 200 м
[]
+4.6 +4.6 100 -1 -1 1006.5 1000.5 +4.4 +6.0
15 15.09 В 7 16 км 5/5 50 м
[]
+5.0 +4.9 99 -1 +1 1005.3 999.3
18 15.09 В 7 16 км 10/10 1500 м
[]
+5.4 +5.0 97 -0 -0 1003.7 997.7 +4.4 +5.6
21 15.09 В 10 16 км {осадки} 10/10 300 м
[]
+5.8 +5.5 98 -1 -1 1001.0 995.0
00 16.09 В 9 1600 м слаб. дождь {осадки} н/о +5.5 +5.5 100 -1 -1 998.0 992.0 +4.4 +5.9 2
03 16.09 ЮВ 6 700 м туман {осадки} н/о +5.8 +5.8 100 +1 +1 995.8 989.8
06 16.09 ЮЗ 6 8000 м дымка {осадки} 10/10 100 м
[]
+5.0 +5.0 100 -0 -0 995.8 989.8 +4.4 +5.9 4 231
09 16.09 З 9 16 км {осадки} 10/10 100 м
[]
+3.0 +3.0 100 -4 -4 997.9 991.9
12 16.09 З 9 1600 м дымка {осадки} н/о +4.1 +4.1 100 -3 -3 1000.5 994.5 +2.7 +5.9 0.3
15 16.09 ЮЗ 11 16 км 10/10 200 м
[]
+3.7 +3.3 97 -4 -4 1001.3 995.3
18 16.09 ЮЗ 10 9000 м дымка 10/10 200 м
[]
+3.8 +3.7 99 -3 -3 1002.3 996.3 +2.7 +5.0
21 16.09 ЮЗ 9 16 км слаб. дождь 10/10 100 м
[]
+3.9 +3.8 99 -3 -3 1003.1 997.1
00 17.09 З 8 16 км слаб. дождь {осадки} 10/10 200 м
[]
+2.4 +2.0 97 -4 -4 1004.7 998.7 +2.4 +4.2 0.3
03 17.09 З 7 16 км слаб. дождь {осадки} 10/10 200 м
[]
+1.8 +1.2 96 -5 -5 1005.8 999.8
06 17.09 З 7 16 км {осадки} 10/10 200 м
[]
+1.7 +1.4 98 -5 -5 1006.8 1000.7 +1.5 +5.0 1 141
09 17.09 З 8 16 км {осадки} 10/10 200 м
[]
+1.5 +1.3 99 -6 -6 1008.1 1002.0
12 17.09 З 6 12 км 10/10 300 м
[]
+1.2 +1.2 100 -5 -5 1009.7 1003.6 +1.2 +5.0 0.3
15 17.09 З 6 16 км 10/10 200 м
[]
+1.7 +1.4 98 -5 -5 1010.8 1004.7
18 17.09 СЗ 4 12 км 10/10 200 м
[]
+2.7 +2.2 97 -2 -2 1012.3 1006.2 +1.2 +3.1
21 17.09 СЗ 2 16 км {осадки} 9/9 300 м
[]
+2.9 +1.4 90 0 0 1012.8 1006.7
00 18.09 В 1 16 км {осадки} 10/10 300 м
[]
+2.2 +1.0 92 0 0 1013.0 1006.9 +1.2 +3.3 0.3
03 18.09 В 4 16 км {осадки} 10/10 100 м
[]
+1.5 +1.5 100 -4 -4 1012.7 1006.6
06 18.09 В 5 16 км {осадки} 10/10 200 м
[]
+1.6 +1.5 99 -4 -4 1011.7 1005.6 +1.1 +3.3 0.5 71
09 18.09 В 5 16 км 10/10 200 м
[]
+1.9 +1.3 96 -4 -4 1010.6 1004.5
12 18.09 СВ 7 16 км 10/10 100 м
[]
+1.6 +1.5 99 -5 -5 1009.4 1003.3 +1.1 +3.3
15 18.09 СВ 9 16 км 10/10 100 м
[]
+2.0 +1.7 98 -5 -5 1008.1 1002.0
18 18.09 СВ 8 16 км 10/10 200 м
[]
+2.4 +1.7 95 -4 -4 1007.5 1001.4 +1.1 +2.5
21 18.09 СВ 8 16 км 10/10 200 м
[]
+2.1 +1.3 94 -5 -5 1006.5 1000.4
00 19.09 СВ 7 11 км 10/10 200 м
[]
+2.4 +2.3 99 -4 -4 1006.7 1000.6 +1.4 +2.8 0.3
03 19.09 СВ 8 12 км {осадки} 10/10 100 м
[]
+1.8 +1.7 99 -5 -5 1005.4 999.3
06 19.09 СВ 6 16 км 10/10 100 м
[]
+1.6 +1.5 99 -5 -5 1004.9 998.8 +1.4 +2.8 161
09 19.09 С 5 4800 м дымка 10/10 100 м
[]
+1.9 +1.9 100 -4 -4 1004.8 998.7
12 19.09 С 6 8000 м дымка 10/10 100 м
[]
+1.3 +1.3 100 -5 -5 1004.5 998.4 +1.3 +2.8
15 19.09 С 7 16 км 10/10 100 м
[]
+2.4 +1.8 96 -4 -4 1003.8 997.8
18 19.09 С 7 16 км 10/10 300 м
[]
+4.1 +2.3 88 -2 -2 1004.0 998.0 +1.0 +4.3
21 19.09 С 6 16 км 9/9 300 м
[]
+4.2 +1.6 83 -1 -1 1004.8 998.8
00 20.09 СЗ 4 16 км 5/5 600 м
[]
+3.3 +1.8 90 -1 -1 1005.7 999.6 +1.0 +5.0
03 20.09 С 7 2400 м дымка 10/10 100 м
[]
+1.3 +1.3 100 -6 -6 1006.3 1000.2
06 20.09 СЗ 7 14 км 9/9 50 м
[]
-0.3 -0.3 100 -8 -8 1007.3 1001.2 -0.5 +5.0 11
09 20.09 СЗ 7 16 км 10/10 100 м
[]
+0.2 +0.1 99 -7 -7 1008.6 1002.5
12 20.09 СЗ 5 16 км 5/5 300 м
[]
0.0 0.0 100 -6 -6 1009.3 1003.2 -0.5 +5.0
15 20.09 СЗ 6 16 км 10/10 200 м
[]
+1.6 +1.2 97 -5 -5 1010.0 1003.9
18 20.09 СВ 7 16 км 10/10 300 м
[]
+3.5 +1.2 85 -2 -2 1010.8 1004.7 -0.5 +3.7
21 20.09 СВ 4 16 км ясно +3.8 +0.5 79 -1 -0 1012.1 1006.0
00 21.09 С 4 16 км 3/3 300 м
[]
+2.2 +0.6 89 -3 -3 1011.9 1005.8 -0.5 +4.1
03 21.09 С 4 16 км 9/9 300 м
[]
+0.2 -0.1 98 -5 -5 1011.9 1005.8
06 21.09 С 4 16 км 10/10 300 м
[]
+0.4 +0.2 99 -5 -5 1011.9 1005.8 -0.5 +4.1 18
09 21.09 С 4 16 км 9/9 300 м
[]
-1.0 -1.3 98 -7 -7 1011.2 1005.1
12 21.09 С 5 16 км 10/10 300 м
[]
-0.1 -0.5 97 -6 -6 1010.6 1004.5 -1.1 +4.1
15 21.09 СВ 5 16 км 9/9 300 м
[]
+1.3 -1.0 85 -5 -4 1009.8 1003.7
18 21.09 В 4 16 км 10/10 300 м
[]
+1.6 -1.3 81 -3 -3 1008.6 1002.5 -1.1 +1.6
21 21.09 В 4 16 км 10/10 300 м
[]
+1.3 -1.5 82 -4 -4 1008.5 1002.4

 

Местоположение метеостанции Йоа-Хейвен (Нунавут, Канада): широта 46.55 долгота -61.05 высота над уровнем моря 13 м.

В архиве по умолчанию представлена погода в Йоа-Хейвен за последнюю неделю. Архивные данные за месяц целиком и за предыдущие месяцы, начиная с января 2011 года, Вы можете получить, выбрав интересующий диапазон дат из раскрывающегося списка и нажав кнопку "Ввод!".


*Определитесь, кто Вы:
робот инопланетянин человек

Внимание! Время в таблицах - всемирное. Для получения местного времени необходимо прибавить поправку, которая равна -4 ч.

Смотрите также архив погоды в соседних городах и на ближайших метеорологических станциях:

Погода в Четикемпе (Новая Шотландия, Канада) (13 км)
Погода в Норд Маунтин (Новая Шотландия, Канада) (42 км)
Погода в Ингониш Бич (Новая Шотландия, Канада) (51 км)
Погода на Восток Поинт (Остров Принца Эдуарда, Канада) (71 км)
Погода в Сиднее (Новая Шотландия, Канада) (88 км)
Погода в Сидней аэропорту (Новая Шотландия, Канада) (88 км)
Погода на Острове Святого Павла (Новая Шотландия, Канада) (103 км)
Погода в Порт-Хоксбери (Новая Шотландия, Канада) (103 км)
Погода на Острове Авр Окс Мэзон (Квебек, Канада) (111 км)
Погода на Острове Авр Окс Мэзон 2 (Квебек, Канада) (111 км)

Пояснения к столбцам:

Ветер - указаны скорость ветра в м/с - средняя за 10 мин, порывы в срок и между сроками (в фигурных скобках) и направление, откуда дует ветер: С - северный, СВ - северо-восточный, В - восточный, ЮВ - юго-восточный, Ю - южный, ЮЗ - юго-западный, З - западный, СЗ - северо-западный.
Видимость - горизонтальная дальность видимости в метрах или километрах. При видимости от 1 до 10 км при отсутствии осадков обычно наблюдается дымка, при ухудшении видимости до 1 км и менее - туман. В сухую погоду видимость может ухудшаться дымом, пылью или мглою.
Явления - указаны атмосферные явления, наблюдавшиеся в срок или в последний час перед сроком; фигурными скобками обозначены явления, наблюдавшиеся между сроками (за 1-3 часа до срока); квадратными скобками обозначены град или гололедные отложения с указанием их диаметра в мм.
Облачность - указаны через наклонную черту общая и нижняя облачность в баллах и высота нижней границы облаков в метрах; квадратными скобками обозначены формы облаков: Ci - перистые, Cs - перисто-слоистые, Cc - перисто-кучевые, Ac - высококучевые, As - высокослоистые, Sc - слоисто-кучевые, Ns - слоисто-дождевые, Cu - кучевые, Cb - кучево-дождевые. Подробнее классификацию облаков см. в Атласе облаков (PDF).
T - Температура воздуха - температура, измеренная на высоте 2 м над землей.
Td - Температура точки росы - температура, при понижении до которой содержащийся в воздухе водяной пар достигнет насыщения.
f - Относительная влажность воздуха - влажноcть воздуха, измеренная на высоте 2 м над землей.
Te - Эффективная температура - температура, которую ощущает одетый по сезону человек в тени. Характеристика душности погоды. При расчете учитывается влияние влажности воздуха и скорости ветра на теплоощущения человека.
Tes - Эффективная температура на солнце - температура, которую ощущает человек, с поправкой на солнечный нагрев. Характеристика знойности погоды. Зависит от высоты солнца над горизонтом, облачности и скорости ветра. Ночью, в пасмурную погоду, а также при ветре 12 м/с и более поправка равна нулю.
P - Атмосферное давление - приведенное к уровню моря атмосферное давление.
Po - Атмосферное давление - измеренное на уровне метеостанции атмосферное давление.
Tmin - Минимальная температура - минимум температуры воздуха на высоте 2 м над землей.
Tmax - Максимальная температура - максимум температуры воздуха на высоте 2 м над землей.
R - Количество осадков - Количество выпавших осадков за период времени, мм. При наведении курсора мыши на число - период времени, за который выпало указанное количество осадков.
R24 - Количество осадков - Количество выпавших осадков за 24 часа, мм.
S - Снежный покров - Высота снежного покрова, см. При наведении курсора мыши на число - состояние снежного покрова и степень покрытия местности в баллах.